ADF AIRWAYS. MIAMI FLORIDA’S PREMIER FLIGHT TRAINING ACADEMY

Thank you for visiting ADF Airways. Located in Miami, Florida, ADF airways is a premier Flight Training school dedicated to helping those who want to learn how to fly. Whether you are a new student seeking a license to fly for fun, or an advanced pilot looking to get your ATP rating, we’re confident ADF Airways will exceed your expectations!

 

OVER 3 DECADES OF EXPERIENCE WITH A PERSONAL TOUCH

ADF Airways has been in the business of helping pilots since 1986. We take an individual approach to flight training, and can tailor your experience at whatever pace you choose. Our instructors have a combined experience of well over 40 years in the business, and we’re sure we will be able to help you live your dream. ADF Airways is :

  • An FAA-approved Part 141 Flight Academy (Part 61 training available)
  • Approved by the Department of Veterans Affairs (VA)
  • An experiecnced leader in helping students attatin a full range of ratings from Private Pilot to Airline Transport Pilot with Jet Transition training.
  • A strong partner that assists  foreign students to gain FAA ratings and student visas.
  • A quality centered organization that provides experienced Flight Instructors
  • A large provider of a wide range of single and multi-engine aircraft.

ADF Airways has been providing quality Flight instruction for over 3 decades. Established in 1986, we are located at the Kendall-Tamiami Executive Airport (TMB) in Miami, Florida. We have grown into an institution of more than 200 active students. ADF Airways is dedicated to giving each person the personal attention he or she deserves. Our experienced flight instructor staff truly enjoys teaching and giving their undivided attention to the wants and needs of each student. They here just to to help you succeed!

 

 

Our Programs and Services

ADF Airways offers a variety of programs to suit your needs. Click on any of the links below for more information

Private Pilot Course

Foreign License Conversion

Instrument Rating Course

Jet Transition Program

Commercial Pilot Course

CFI Course

FAA Testing Center

Facebook By Weblizar Powered By Weblizar

METARS

KTMB 250053Z 18005KT 10SM CLR 23/19 A2981 RMK AO2 SLP094 T02330189

KOPF 250053Z 13004KT 10SM BKN048 23/18 A2982 RMK AO2 SLP099 T02330183

KFLL 250053Z 00000KT 10SM BKN038 23/19 A2981 RMK AO2 SLP094 T02330194

TAF INFORMATION

TAF AMD KTMB 242101Z 2421/2518 25006KT P6SM SCT040 FM242300 VRB04KT P6SM SCT040 FM250600 VRB02KT 5SM BR SCT005 TEMPO 2508/2512 2SM BR BKN005 FM251400 28005KT P6SM SCT030

TAF AMD KOPF 242101Z 2421/2518 03008KT P6SM SCT040 FM250000 VRB04KT P6SM SCT050 FM250600 VRB02KT 6SM BR SCT005 TEMPO 2512/2513 3SM BR SCT005 BKN012 FM251400 26006KT P6SM SCT030

TAF AMD KFLL 242101Z 2421/2518 09007KT P6SM SCT040 FM250000 VRB04KT P6SM SCT250 FM250600 VRB02KT 6SM BR SCT005 FM251400 23005KT P6SM SCT030

SO MANY GRADUATES, SO MANY DREAMS MADE REALITY

ADF Airways has graduated many students over its 30 plus years in the business. The above gallery shows just a sample of our most recent graduates. Click here to see our gallery of graduates page.

PARTNERS